RESOURCESAT-2A

Last updated on Mon Sep 07 2026 00:02:46 GMT+0000 (Coordinated Universal Time)

1 41877U 16074A 26249.64393719 -.00000068 00000+0 -10908-4 0 9997 2 41877 98.7467 322.4578 0001991 171.4827 188.6385 14.21610878505873
UTC large
Height (km)
Speed (km/s)
/
Latitude / Longitude
Inclination (degrees)
Orbital Period (minutes)
Azimuth
Elevation
Range (km)
Doppler Factor

Next 0 passes for location: London (51.5072 / 0.1276)

No passes found over London.
RESOURCESAT-2A